GFSNW_prec_precacc6_300.txt.gz
Total_Precipitation_Accumulation
0.00 0.00 0.00 0.01 0.00 0.00 0.00 0.00 0.00 0.00 0.00 0.00 0.00 0.00 0.00 0.00 0.00 0.00 0.00 0.00 0.01 0.04 0.07 0.09 0.04 0.03 0.06 0.06 0.03 0.06 0.09 0.17 0.07 0.01 0.01 0.02 0.05 0.07 0.09 0.18 0.15 0.12 0.09 0.02
0.00 0.00 0.01 0.01 0.00 0.01 0.01 0.00 0.00 0.00 0.00 0.00 0.00 0.01 0.00 0.00 0.00 0.00 0.02 0.04 0.05 0.04 0.03 0.05 0.04 0.03 0.01 0.01 0.02 0.05 0.04 0.10 0.08 0.03 0.01 0.03 0.07 0.04 0.04 0.10 0.18 0.12 0.06 0.02
0.00 0.00 0.01 0.01 0.00 0.00 0.01 0.01 0.00 0.00 0.00 0.02 0.06 0.06 0.02 0.01 0.01 0.01 0.01 0.02 0.02 0.02 0.01 0.01 0.02 0.00 0.00 0.00 0.00 0.01 0.07 0.10 0.06 0.09 0.03 0.02 0.04 0.01 0.00 0.05 0.14 0.02 0.00 0.00
0.01 0.01 0.02 0.01 0.00 0.01 0.01 0.01 0.00 0.00 0.01 0.01 0.01 0.01 0.02 0.02 0.01 0.01 0.01 0.01 0.00 0.02 0.10 0.05 0.02 0.02 0.05 0.02 0.01 0.04 0.06 0.05 0.00 0.00 0.00 0.00 0.00 0.00 0.00 0.01 0.01 0.01 0.00 0.00
0.01 0.02 0.01 0.01 0.01 0.03 0.00 0.01 0.02 0.03 0.01 0.01 0.02 0.01 0.00 0.00 0.02 0.04 0.02 0.04 0.07 0.09 0.12 0.09 0.14 0.17 0.15 0.18 0.15 0.10 0.06 0.04 0.00 0.01 0.00 0.00 0.00 0.00 0.00 0.00 0.00 0.00 0.00 0.00
0.01 0.01 0.01 0.01 0.01 0.05 0.03 0.01 0.01 0.04 0.04 0.03 0.02 0.01 0.02 0.03 0.02 0.02 0.03 0.05 0.08 0.05 0.04 0.07 0.09 0.08 0.07 0.04 0.06 0.09 0.11 0.04 0.04 0.03 0.00 0.00 0.01 0.00 0.00 0.00 0.00 0.00 0.00 0.00
0.01 0.01 0.01 0.02 0.03 0.06 0.08 0.03 0.05 0.08 0.05 0.03 0.02 0.02 0.01 0.01 0.01 0.04 0.00 0.01 0.04 0.04 0.02 0.00 0.00 0.00 0.00 0.00 0.00 0.02 0.08 0.08 0.10 0.05 0.00 0.03 0.00 0.00 0.00 0.00 0.00 0.00 0.00 0.00
0.01 0.01 0.01 0.01 0.02 0.07 0.08 0.02 0.05 0.10 0.10 0.05 0.01 0.00 0.01 0.01 0.00 0.00 0.00 0.00 0.02 0.01 0.00 0.01 0.01 0.00 0.00 0.00 0.00 0.01 0.06 0.14 0.16 0.10 0.05 0.01 0.00 0.00 0.00 0.00 0.00 0.00 0.00 0.00
0.01 0.02 0.02 0.02 0.04 0.08 0.08 0.03 0.08 0.11 0.08 0.01 0.01 0.02 0.01 0.01 0.03 0.03 0.00 0.00 0.00 0.01 0.02 0.03 0.02 0.00 0.00 0.00 0.01 0.01 0.05 0.11 0.18 0.10 0.07 0.01 0.00 0.00 0.00 0.00 0.00 0.00 0.00 0.00
0.01 0.02 0.02 0.03 0.04 0.07 0.08 0.05 0.04 0.10 0.11 0.01 0.00 0.01 0.03 0.06 0.06 0.06 0.01 0.06 0.05 0.01 0.01 0.02 0.01 0.01 0.03 0.06 0.06 0.01 0.01 0.02 0.02 0.01 0.06 0.01 0.00 0.00 0.00 0.02 0.02 0.00 0.00 0.00
0.01 0.01 0.03 0.03 0.03 0.05 0.10 0.04 0.01 0.13 0.24 0.04 0.00 0.01 0.04 0.06 0.07 0.12 0.09 0.07 0.01 0.04 0.04 0.05 0.04 0.04 0.02 0.00 0.00 0.00 0.00 0.02 0.02 0.03 0.05 0.01 0.00 0.00 0.01 0.03 0.03 0.00 0.00 0.00
0.01 0.02 0.03 0.03 0.02 0.04 0.13 0.05 0.00 0.05 0.20 0.05 0.00 0.00 0.00 0.00 0.00 0.01 0.04 0.02 0.01 0.05 0.07 0.04 0.07 0.05 0.01 0.00 0.01 0.00 0.01 0.00 0.01 0.02 0.01 0.00 0.00 0.00 0.00 0.01 0.03 0.00 0.00 0.00
0.02 0.02 0.03 0.04 0.04 0.06 0.11 0.03 0.01 0.04 0.07 0.01 0.00 0.00 0.00 0.00 0.00 0.00 0.06 0.01 0.01 0.04 0.06 0.14 0.15 0.11 0.06 0.05 0.01 0.00 0.00 0.00 0.00 0.01 0.00 0.00 0.00 0.00 0.01 0.02 0.01 0.00 0.00 0.00
0.04 0.04 0.05 0.04 0.02 0.01 0.04 0.03 0.03 0.06 0.09 0.07 0.00 0.00 0.00 0.00 0.00 0.00 0.00 0.00 0.02 0.10 0.17 0.25 0.18 0.08 0.03 0.03 0.01 0.01 0.00 0.01 0.03 0.04 0.00 0.00 0.01 0.01 0.01 0.00 0.01 0.00 0.00 0.00
0.03 0.04 0.05 0.05 0.03 0.02 0.05 0.01 0.00 0.01 0.05 0.04 0.01 0.00 0.00 0.00 0.00 0.00 0.00 0.03 0.09 0.13 0.13 0.09 0.04 0.02 0.04 0.06 0.04 0.02 0.00 0.02 0.06 0.07 0.05 0.06 0.07 0.05 0.02 0.00 0.01 0.01 0.01 0.00
0.06 0.06 0.05 0.03 0.05 0.08 0.04 0.02 0.00 0.03 0.08 0.25 0.11 0.00 0.00 0.00 0.00 0.00 0.00 0.01 0.03 0.07 0.09 0.05 0.03 0.05 0.11 0.12 0.04 0.01 0.02 0.04 0.07 0.09 0.06 0.07 0.06 0.04 0.01 0.00 0.02 0.01 0.00 0.00
0.06 0.06 0.06 0.04 0.07 0.03 0.02 0.01 0.00 0.01 0.00 0.02 0.02 0.00 0.00 0.00 0.00 0.00 0.00 0.00 0.01 0.04 0.06 0.06 0.04 0.05 0.09 0.09 0.02 0.01 0.01 0.01 0.01 0.01 0.02 0.02 0.03 0.02 0.00 0.00 0.00 0.00 0.00 0.00
0.05 0.06 0.06 0.05 0.02 0.00 0.01 0.00 0.00 0.01 0.02 0.06 0.05 0.01 0.00 0.00 0.00 0.00 0.00 0.00 0.01 0.02 0.02 0.03 0.02 0.01 0.02 0.01 0.00 0.01 0.01 0.01 0.00 0.00 0.00 0.01 0.01 0.00 0.00 0.00 0.00 0.00 0.00 0.00
0.09 0.11 0.11 0.03 0.00 0.00 0.01 0.01 0.02 0.01 0.06 0.06 0.03 0.01 0.00 0.00 0.00 0.00 0.00 0.00 0.01 0.01 0.00 0.00 0.00 0.00 0.00 0.00 0.01 0.01 0.01 0.00 0.00 0.00 0.00 0.00 0.00 0.00 0.00 0.00 0.00 0.00 0.00 0.00
0.16 0.13 0.03 0.00 0.00 0.00 0.00 0.02 0.03 0.02 0.05 0.06 0.01 0.00 0.00 0.01 0.01 0.01 0.01 0.01 0.00 0.00 0.00 0.00 0.00 0.00 0.00 0.00 0.00 0.00 0.00 0.00 0.00 0.00 0.00 0.00 0.00 0.00 0.00 0.00 0.00 0.00 0.00 0.00
0.13 0.04 0.00 0.01 0.00 0.00 0.00 0.02 0.02 0.02 0.01 0.00 0.00 0.00 0.00 0.01 0.02 0.01 0.01 0.01 0.01 0.00 0.00 0.00 0.00 0.00 0.00 0.00 0.00 0.00 0.00 0.00 0.00 0.00 0.00 0.00 0.00 0.00 0.00 0.00 0.00 0.00 0.00 0.00
0.03 0.01 0.01 0.01 0.01 0.02 0.01 0.01 0.01 0.01 0.00 0.00 0.00 0.00 0.00 0.01 0.00 0.00 0.00 0.00 0.00 0.00 0.00 0.00 0.00 0.00 0.00 0.00 0.00 0.00 0.00 0.00 0.00 0.00 0.00 0.00 0.00 0.00 0.00 0.00 0.00 0.00 0.00 0.00
0.04 0.01 0.00 0.01 0.01 0.01 0.01 0.00 0.00 0.00 0.00 0.00 0.00 0.01 0.01 0.00 0.00 0.01 0.00 0.00 0.00 0.00 0.00 0.00 0.00 0.00 0.00 0.00 0.00 0.00 0.00 0.00 0.00 0.00 0.00 0.00 0.00 0.00 0.00 0.00 0.00 0.00 0.00 0.00
0.02 0.00 0.01 0.01 0.00 0.00 0.00 0.00 0.02 0.01 0.00 0.00 0.00 0.00 0.01 0.00 0.01 0.00 0.00 0.00 0.00 0.00 0.00 0.00 0.00 0.00 0.00 0.00 0.00 0.00 0.00 0.00 0.00 0.00 0.00 0.00 0.00 0.00 0.00 0.00 0.00 0.00 0.00 0.00
0.01 0.00 0.00 0.00 0.00 0.00 0.00 0.01 0.02 0.02 0.01 0.00 0.00 0.00 0.00 0.00 0.00 0.00 0.00 0.00 0.00 0.00 0.00 0.00 0.00 0.00 0.00 0.00 0.00 0.00 0.00 0.00 0.00 0.00 0.00 0.00 0.00 0.00 0.00 0.00 0.00 0.00 0.00 0.00
0.00 0.00 0.00 0.00 0.00 0.00 0.00 0.00 0.00 0.01 0.00 0.00 0.00 0.00 0.00 0.00 0.00 0.00 0.00 0.00 0.00 0.00 0.00 0.00 0.00 0.00 0.00 0.00 0.00 0.00 0.00 0.00 0.00 0.00 0.00 0.00 0.00 0.00 0.00 0.00 0.00 0.00 0.00 0.00
0.01 0.00 0.00 0.00 0.00 0.00 0.00 0.00 0.00 0.00 0.00 0.00 0.00 0.00 0.00 0.00 0.00 0.00 0.00 0.00 0.00 0.00 0.00 0.00 0.00 0.00 0.00 0.00 0.00 0.00 0.00 0.00 0.00 0.00 0.00 0.00 0.00 0.00 0.00 0.00 0.00 0.00 0.00 0.00

GFSNW_prec_precacc6_306.txt.gz
Total_Precipitation_Accumulation
0.00 0.00 0.01 0.01 0.01 0.01 0.00 0.00 0.00 0.00 0.00 0.00 0.00 0.00 0.00 0.00 0.00 0.00 0.00 0.00 0.02 0.06 0.07 0.02 0.01 0.01 0.02 0.01 0.00 0.00 0.00 0.05 0.02 0.00 0.00 0.00 0.01 0.04 0.07 0.13 0.09 0.08 0.07 0.03
0.00 0.00 0.00 0.01 0.01 0.01 0.00 0.00 0.00 0.00 0.00 0.00 0.00 0.00 0.00 0.00 0.01 0.00 0.00 0.02 0.03 0.03 0.01 0.02 0.01 0.01 0.00 0.00 0.00 0.01 0.05 0.08 0.06 0.01 0.00 0.00 0.03 0.04 0.05 0.13 0.18 0.10 0.08 0.02
0.00 0.00 0.00 0.00 0.01 0.01 0.00 0.00 0.00 0.00 0.00 0.00 0.00 0.00 0.00 0.00 0.00 0.00 0.00 0.01 0.03 0.04 0.02 0.01 0.03 0.02 0.01 0.01 0.01 0.03 0.12 0.13 0.08 0.06 0.01 0.02 0.05 0.03 0.03 0.08 0.10 0.02 0.01 0.00
0.00 0.00 0.00 0.00 0.00 0.01 0.00 0.00 0.00 0.00 0.00 0.00 0.00 0.00 0.00 0.00 0.00 0.01 0.01 0.02 0.02 0.07 0.08 0.02 0.01 0.01 0.01 0.01 0.01 0.04 0.11 0.09 0.02 0.01 0.00 0.01 0.04 0.05 0.03 0.03 0.01 0.01 0.00 0.00
0.01 0.00 0.00 0.00 0.00 0.02 0.00 0.00 0.00 0.01 0.00 0.00 0.00 0.00 0.00 0.00 0.00 0.02 0.00 0.01 0.01 0.01 0.02 0.03 0.04 0.01 0.01 0.01 0.01 0.02 0.04 0.05 0.03 0.02 0.00 0.00 0.00 0.00 0.00 0.00 0.00 0.01 0.00 0.01
0.01 0.01 0.01 0.00 0.00 0.02 0.01 0.01 0.01 0.04 0.01 0.00 0.00 0.00 0.00 0.00 0.00 0.00 0.00 0.00 0.01 0.00 0.00 0.00 0.00 0.00 0.00 0.01 0.00 0.02 0.05 0.06 0.06 0.04 0.00 0.01 0.01 0.00 0.00 0.00 0.00 0.01 0.02 0.00
0.02 0.01 0.01 0.00 0.00 0.02 0.03 0.02 0.03 0.10 0.05 0.02 0.00 0.00 0.00 0.00 0.00 0.00 0.00 0.00 0.01 0.00 0.00 0.00 0.00 0.00 0.00 0.00 0.00 0.03 0.09 0.12 0.12 0.07 0.04 0.06 0.00 0.00 0.00 0.00 0.00 0.00 0.00 0.00
0.02 0.02 0.01 0.01 0.00 0.01 0.03 0.02 0.05 0.12 0.11 0.02 0.00 0.00 0.00 0.00 0.00 0.00 0.00 0.00 0.00 0.00 0.00 0.01 0.00 0.00 0.00 0.00 0.00 0.00 0.03 0.10 0.14 0.10 0.09 0.04 0.00 0.00 0.01 0.00 0.00 0.00 0.00 0.00
0.03 0.03 0.02 0.02 0.02 0.01 0.04 0.02 0.05 0.16 0.22 0.05 0.00 0.00 0.00 0.00 0.00 0.00 0.00 0.00 0.00 0.01 0.03 0.03 0.03 0.00 0.00 0.00 0.00 0.01 0.03 0.03 0.09 0.07 0.08 0.04 0.00 0.00 0.00 0.00 0.00 0.00 0.00 0.00
0.04 0.04 0.05 0.04 0.04 0.03 0.07 0.05 0.05 0.18 0.24 0.04 0.00 0.01 0.00 0.00 0.01 0.02 0.00 0.00 0.01 0.01 0.02 0.02 0.01 0.01 0.01 0.01 0.01 0.01 0.00 0.00 0.02 0.01 0.05 0.01 0.00 0.00 0.00 0.00 0.00 0.00 0.00 0.00
0.06 0.07 0.07 0.07 0.07 0.04 0.07 0.03 0.03 0.15 0.21 0.06 0.00 0.00 0.01 0.01 0.03 0.03 0.01 0.02 0.00 0.02 0.02 0.01 0.00 0.01 0.00 0.00 0.00 0.00 0.00 0.01 0.00 0.01 0.01 0.00 0.00 0.00 0.00 0.00 0.00 0.00 0.00 0.00
0.06 0.06 0.05 0.06 0.06 0.04 0.10 0.06 0.02 0.06 0.19 0.08 0.00 0.00 0.00 0.00 0.00 0.02 0.07 0.03 0.00 0.01 0.02 0.01 0.05 0.01 0.01 0.00 0.01 0.00 0.00 0.00 0.01 0.01 0.00 0.00 0.00 0.00 0.01 0.02 0.02 0.01 0.00 0.00
0.06 0.05 0.05 0.05 0.06 0.05 0.12 0.11 0.10 0.12 0.11 0.02 0.00 0.00 0.00 0.00 0.00 0.00 0.05 0.02 0.01 0.02 0.02 0.10 0.13 0.11 0.05 0.03 0.01 0.00 0.00 0.00 0.06 0.05 0.01 0.01 0.03 0.04 0.04 0.05 0.02 0.00 0.00 0.00
0.05 0.04 0.03 0.04 0.08 0.09 0.13 0.13 0.12 0.10 0.15 0.08 0.00 0.00 0.00 0.00 0.00 0.00 0.00 0.00 0.02 0.08 0.13 0.20 0.14 0.05 0.02 0.04 0.01 0.01 0.01 0.06 0.08 0.06 0.03 0.04 0.03 0.01 0.02 0.03 0.01 0.00 0.00 0.00
0.03 0.02 0.04 0.09 0.13 0.11 0.12 0.11 0.07 0.01 0.04 0.05 0.01 0.00 0.00 0.00 0.00 0.00 0.00 0.02 0.07 0.09 0.13 0.11 0.04 0.03 0.06 0.07 0.03 0.01 0.00 0.05 0.06 0.05 0.05 0.03 0.01 0.01 0.01 0.02 0.02 0.01 0.00 0.00
0.03 0.05 0.06 0.10 0.09 0.11 0.12 0.09 0.02 0.01 0.05 0.24 0.04 0.00 0.00 0.00 0.00 0.00 0.00 0.01 0.03 0.08 0.09 0.06 0.05 0.06 0.10 0.07 0.02 0.00 0.01 0.01 0.01 0.01 0.00 0.00 0.01 0.01 0.01 0.02 0.02 0.02 0.01 0.00
0.04 0.02 0.05 0.07 0.10 0.15 0.11 0.02 0.00 0.01 0.04 0.09 0.01 0.00 0.00 0.00 0.00 0.00 0.00 0.00 0.01 0.03 0.05 0.04 0.03 0.04 0.05 0.03 0.01 0.00 0.01 0.00 0.00 0.00 0.00 0.00 0.00 0.00 0.00 0.00 0.01 0.00 0.00 0.00
0.04 0.07 0.11 0.11 0.14 0.19 0.19 0.06 0.06 0.02 0.06 0.04 0.01 0.00 0.00 0.00 0.00 0.00 0.00 0.00 0.01 0.02 0.02 0.01 0.01 0.00 0.01 0.00 0.00 0.00 0.00 0.00 0.00 0.00 0.00 0.00 0.00 0.00 0.00 0.00 0.00 0.00 0.00 0.00
0.08 0.08 0.06 0.10 0.08 0.07 0.06 0.10 0.14 0.16 0.10 0.04 0.03 0.00 0.00 0.00 0.00 0.00 0.00 0.00 0.00 0.00 0.01 0.00 0.00 0.00 0.00 0.00 0.00 0.00 0.00 0.00 0.00 0.00 0.00 0.00 0.00 0.00 0.00 0.00 0.00 0.00 0.00 0.00
0.05 0.03 0.06 0.05 0.05 0.06 0.07 0.06 0.03 0.03 0.07 0.05 0.02 0.00 0.00 0.00 0.00 0.02 0.01 0.01 0.00 0.00 0.00 0.00 0.00 0.00 0.00 0.00 0.00 0.00 0.00 0.00 0.00 0.00 0.00 0.00 0.00 0.00 0.00 0.00 0.00 0.00 0.00 0.00
0.02 0.03 0.02 0.06 0.08 0.07 0.05 0.02 0.01 0.01 0.01 0.01 0.01 0.01 0.00 0.01 0.01 0.02 0.02 0.02 0.01 0.00 0.00 0.00 0.00 0.00 0.00 0.00 0.00 0.00 0.00 0.00 0.00 0.00 0.00 0.00 0.00 0.00 0.00 0.00 0.00 0.00 0.00 0.00
0.00 0.01 0.05 0.07 0.07 0.05 0.02 0.01 0.01 0.01 0.00 0.01 0.02 0.01 0.01 0.01 0.01 0.00 0.01 0.01 0.00 0.00 0.00 0.00 0.00 0.00 0.00 0.00 0.00 0.00 0.00 0.00 0.00 0.00 0.00 0.00 0.00 0.00 0.00 0.00 0.00 0.00 0.00 0.00
0.05 0.04 0.04 0.02 0.02 0.01 0.00 0.00 0.00 0.01 0.02 0.02 0.01 0.01 0.01 0.00 0.00 0.01 0.01 0.01 0.01 0.01 0.00 0.00 0.00 0.00 0.00 0.00 0.00 0.00 0.00 0.00 0.00 0.00 0.00 0.00 0.00 0.00 0.00 0.00 0.00 0.00 0.00 0.00
0.04 0.02 0.01 0.00 0.00 0.00 0.00 0.00 0.01 0.04 0.04 0.02 0.01 0.01 0.01 0.00 0.00 0.01 0.01 0.01 0.01 0.01 0.00 0.00 0.00 0.00 0.00 0.00 0.00 0.00 0.00 0.00 0.00 0.00 0.00 0.00 0.00 0.00 0.00 0.00 0.00 0.00 0.00 0.00
0.02 0.00 0.00 0.00 0.00 0.00 0.00 0.00 0.01 0.02 0.02 0.01 0.00 0.00 0.00 0.00 0.00 0.00 0.01 0.01 0.00 0.00 0.00 0.00 0.00 0.00 0.00 0.00 0.00 0.00 0.00 0.00 0.00 0.00 0.00 0.00 0.00 0.00 0.00 0.00 0.00 0.00 0.00 0.00
0.02 0.00 0.00 0.00 0.00 0.00 0.00 0.00 0.00 0.01 0.01 0.00 0.00 0.00 0.00 0.00 0.00 0.00 0.00 0.00 0.00 0.00 0.00 0.00 0.00 0.00 0.00 0.00 0.00 0.00 0.00 0.00 0.00 0.00 0.00 0.00 0.00 0.00 0.00 0.00 0.00 0.00 0.00 0.00
0.02 0.00 0.00 0.00 0.00 0.00 0.00 0.00 0.00 0.00 0.00 0.00 0.00 0.00 0.00 0.00 0.00 0.00 0.00 0.00 0.00 0.00 0.00 0.00 0.00 0.00 0.00 0.00 0.00 0.00 0.00 0.00 0.00 0.00 0.00 0.00 0.00 0.00 0.00 0.00 0.00 0.00 0.00 0.00

GFSNW_prec_precacc6_309.txt.gz
Total_Precipitation_Accumulation
0.00 0.00 0.00 0.00 0.00 0.01 0.00 0.00 0.00 0.00 0.00 0.00 0.00 0.00 0.00 0.00 0.00 0.00 0.00 0.00 0.01 0.04 0.03 0.00 0.01 0.01 0.02 0.03 0.00 0.00 0.00 0.04 0.02 0.00 0.00 0.00 0.00 0.00 0.01 0.05 0.06 0.07 0.07 0.02
0.00 0.00 0.00 0.00 0.00 0.01 0.00 0.00 0.00 0.00 0.00 0.00 0.00 0.00 0.00 0.00 0.00 0.00 0.00 0.00 0.00 0.01 0.01 0.01 0.00 0.01 0.00 0.00 0.00 0.01 0.04 0.08 0.06 0.01 0.00 0.01 0.01 0.00 0.01 0.07 0.14 0.09 0.08 0.02
0.01 0.01 0.01 0.00 0.00 0.01 0.00 0.00 0.00 0.00 0.00 0.00 0.00 0.00 0.00 0.00 0.00 0.00 0.00 0.01 0.03 0.04 0.02 0.02 0.02 0.01 0.00 0.00 0.00 0.00 0.05 0.11 0.08 0.07 0.04 0.04 0.07 0.03 0.02 0.10 0.14 0.04 0.02 0.00
0.01 0.01 0.01 0.01 0.00 0.01 0.00 0.00 0.00 0.00 0.00 0.00 0.00 0.00 0.00 0.00 0.00 0.00 0.00 0.00 0.00 0.02 0.03 0.00 0.00 0.00 0.00 0.00 0.00 0.00 0.01 0.02 0.00 0.00 0.00 0.01 0.04 0.05 0.06 0.08 0.03 0.05 0.01 0.00
0.01 0.01 0.01 0.01 0.01 0.01 0.00 0.00 0.00 0.01 0.00 0.00 0.00 0.00 0.00 0.00 0.00 0.00 0.00 0.00 0.00 0.00 0.00 0.00 0.01 0.01 0.01 0.01 0.00 0.00 0.02 0.03 0.01 0.01 0.00 0.00 0.00 0.00 0.00 0.00 0.00 0.01 0.00 0.01
0.02 0.02 0.03 0.03 0.02 0.02 0.01 0.00 0.01 0.06 0.02 0.00 0.01 0.00 0.00 0.00 0.00 0.00 0.00 0.00 0.00 0.00 0.00 0.00 0.00 0.00 0.00 0.01 0.01 0.02 0.05 0.05 0.05 0.03 0.00 0.01 0.01 0.00 0.00 0.00 0.00 0.01 0.02 0.01
0.03 0.03 0.03 0.04 0.04 0.04 0.06 0.02 0.05 0.12 0.05 0.02 0.01 0.00 0.00 0.00 0.00 0.01 0.00 0.00 0.01 0.00 0.00 0.00 0.00 0.00 0.00 0.00 0.00 0.02 0.05 0.05 0.06 0.04 0.03 0.05 0.00 0.00 0.00 0.00 0.00 0.00 0.00 0.00
0.03 0.03 0.04 0.06 0.06 0.06 0.10 0.06 0.10 0.15 0.12 0.03 0.02 0.00 0.01 0.01 0.00 0.00 0.00 0.00 0.00 0.00 0.00 0.01 0.00 0.00 0.00 0.00 0.00 0.00 0.01 0.04 0.07 0.05 0.03 0.01 0.00 0.00 0.00 0.00 0.00 0.00 0.00 0.00
0.04 0.05 0.05 0.06 0.07 0.08 0.12 0.11 0.09 0.20 0.23 0.06 0.01 0.01 0.01 0.02 0.02 0.00 0.00 0.00 0.00 0.00 0.03 0.04 0.02 0.00 0.00 0.00 0.00 0.00 0.02 0.04 0.08 0.03 0.05 0.02 0.00 0.00 0.00 0.00 0.00 0.00 0.00 0.00
0.05 0.06 0.07 0.07 0.09 0.11 0.15 0.15 0.08 0.16 0.25 0.05 0.01 0.02 0.04 0.04 0.04 0.04 0.00 0.00 0.01 0.02 0.03 0.03 0.01 0.00 0.00 0.00 0.00 0.00 0.01 0.01 0.03 0.01 0.04 0.01 0.00 0.00 0.00 0.00 0.00 0.00 0.00 0.00
0.06 0.07 0.08 0.09 0.11 0.12 0.17 0.18 0.08 0.14 0.21 0.09 0.00 0.00 0.02 0.06 0.10 0.09 0.02 0.04 0.01 0.01 0.02 0.01 0.00 0.00 0.00 0.00 0.00 0.00 0.00 0.02 0.01 0.01 0.01 0.00 0.00 0.00 0.00 0.00 0.00 0.01 0.01 0.00
0.04 0.06 0.06 0.07 0.08 0.08 0.12 0.13 0.03 0.07 0.26 0.15 0.01 0.00 0.00 0.01 0.01 0.06 0.11 0.04 0.00 0.00 0.01 0.01 0.04 0.01 0.01 0.00 0.01 0.00 0.00 0.01 0.01 0.01 0.00 0.00 0.00 0.01 0.02 0.05 0.06 0.05 0.02 0.00
0.06 0.06 0.07 0.07 0.05 0.06 0.15 0.17 0.12 0.21 0.27 0.11 0.02 0.00 0.00 0.00 0.00 0.01 0.10 0.04 0.01 0.00 0.00 0.04 0.06 0.05 0.03 0.02 0.01 0.00 0.00 0.00 0.07 0.05 0.02 0.02 0.04 0.06 0.06 0.06 0.04 0.02 0.00 0.00
0.06 0.06 0.05 0.03 0.05 0.10 0.14 0.15 0.13 0.22 0.26 0.13 0.00 0.00 0.00 0.00 0.00 0.00 0.00 0.01 0.02 0.05 0.08 0.15 0.12 0.05 0.03 0.03 0.01 0.01 0.01 0.07 0.08 0.06 0.04 0.04 0.04 0.01 0.01 0.02 0.02 0.01 0.00 0.00
0.06 0.04 0.03 0.05 0.09 0.07 0.07 0.10 0.09 0.10 0.12 0.05 0.00 0.00 0.00 0.00 0.00 0.00 0.01 0.03 0.09 0.11 0.14 0.11 0.04 0.03 0.06 0.06 0.02 0.01 0.00 0.03 0.04 0.03 0.02 0.00 0.00 0.00 0.00 0.01 0.02 0.02 0.00 0.00
0.05 0.04 0.02 0.05 0.08 0.05 0.10 0.09 0.03 0.04 0.09 0.24 0.05 0.00 0.00 0.00 0.00 0.00 0.00 0.02 0.06 0.09 0.08 0.05 0.05 0.06 0.09 0.07 0.01 0.00 0.00 0.00 0.00 0.00 0.00 0.00 0.00 0.00 0.00 0.01 0.01 0.02 0.01 0.00
0.07 0.05 0.04 0.06 0.10 0.06 0.06 0.02 0.00 0.00 0.02 0.11 0.02 0.00 0.00 0.00 0.00 0.00 0.00 0.02 0.04 0.07 0.07 0.05 0.04 0.06 0.05 0.03 0.00 0.00 0.00 0.00 0.00 0.00 0.00 0.00 0.00 0.00 0.00 0.00 0.01 0.00 0.00 0.00
0.09 0.09 0.07 0.07 0.07 0.12 0.18 0.09 0.08 0.02 0.08 0.04 0.01 0.00 0.00 0.00 0.00 0.00 0.01 0.01 0.02 0.04 0.04 0.03 0.01 0.01 0.00 0.00 0.00 0.00 0.00 0.00 0.00 0.00 0.00 0.00 0.00 0.00 0.00 0.00 0.00 0.00 0.00 0.00
0.16 0.10 0.02 0.00 0.00 0.03 0.06 0.12 0.24 0.26 0.16 0.04 0.02 0.00 0.00 0.00 0.00 0.00 0.01 0.01 0.01 0.01 0.02 0.01 0.00 0.00 0.00 0.00 0.00 0.00 0.00 0.00 0.00 0.00 0.00 0.00 0.00 0.00 0.00 0.00 0.00 0.00 0.00 0.00
0.12 0.02 0.00 0.01 0.03 0.07 0.07 0.03 0.02 0.05 0.08 0.06 0.01 0.00 0.00 0.00 0.00 0.01 0.01 0.01 0.01 0.00 0.00 0.00 0.00 0.00 0.00 0.00 0.00 0.00 0.00 0.00 0.00 0.00 0.00 0.00 0.00 0.00 0.00 0.00 0.00 0.00 0.00 0.00
0.06 0.02 0.02 0.02 0.05 0.04 0.03 0.01 0.00 0.01 0.00 0.01 0.01 0.01 0.01 0.01 0.01 0.02 0.03 0.03 0.02 0.00 0.00 0.00 0.00 0.00 0.00 0.00 0.00 0.00 0.00 0.00 0.00 0.00 0.00 0.00 0.00 0.00 0.00 0.00 0.00 0.00 0.00 0.00
0.00 0.01 0.01 0.02 0.04 0.03 0.02 0.00 0.00 0.00 0.00 0.02 0.02 0.01 0.02 0.02 0.01 0.01 0.02 0.02 0.01 0.01 0.01 0.01 0.00 0.00 0.00 0.00 0.00 0.00 0.00 0.00 0.00 0.00 0.00 0.00 0.00 0.00 0.00 0.00 0.00 0.00 0.00 0.00
0.03 0.00 0.01 0.01 0.01 0.01 0.00 0.00 0.00 0.01 0.02 0.03 0.02 0.01 0.01 0.00 0.00 0.01 0.02 0.02 0.02 0.02 0.01 0.00 0.00 0.00 0.00 0.00 0.00 0.00 0.00 0.00 0.00 0.00 0.00 0.00 0.00 0.00 0.00 0.00 0.00 0.00 0.00 0.00
0.01 0.00 0.00 0.00 0.00 0.00 0.00 0.00 0.00 0.03 0.04 0.03 0.02 0.01 0.01 0.00 0.00 0.01 0.02 0.02 0.01 0.01 0.01 0.00 0.00 0.00 0.00 0.00 0.00 0.00 0.00 0.00 0.00 0.00 0.00 0.00 0.00 0.00 0.00 0.00 0.00 0.00 0.00 0.00
0.00 0.00 0.00 0.00 0.00 0.00 0.00 0.00 0.00 0.01 0.01 0.01 0.00 0.00 0.00 0.00 0.00 0.00 0.01 0.01 0.01 0.01 0.00 0.00 0.00 0.00 0.00 0.00 0.00 0.00 0.00 0.00 0.00 0.00 0.00 0.00 0.00 0.00 0.00 0.00 0.00 0.00 0.00 0.00
0.00 0.00 0.00 0.00 0.00 0.00 0.00 0.00 0.00 0.00 0.00 0.00 0.00 0.00 0.00 0.00 0.00 0.00 0.00 0.00 0.00 0.00 0.00 0.00 0.00 0.00 0.00 0.00 0.00 0.00 0.00 0.00 0.00 0.00 0.00 0.00 0.00 0.00 0.00 0.00 0.00 0.00 0.00 0.00
0.00 0.00 0.00 0.00 0.00 0.00 0.00 0.00 0.00 0.00 0.00 0.00 0.00 0.00 0.00 0.00 0.00 0.00 0.00 0.00 0.00 0.01 0.02 0.01 0.01 0.00 0.00 0.00 0.00 0.00 0.00 0.00 0.00 0.00 0.00 0.00 0.00 0.00 0.00 0.00 0.00 0.00 0.00 0.00

GFSNW_prec_precacc6_315.txt.gz
Total_Precipitation_Accumulation
0.00 0.01 0.01 0.01 0.01 0.01 0.00 0.00 0.00 0.00 0.00 0.00 0.00 0.00 0.00 0.00 0.00 0.00 0.00 0.00 0.00 0.01 0.02 0.01 0.01 0.00 0.02 0.01 0.00 0.01 0.00 0.01 0.01 0.00 0.00 0.00 0.00 0.01 0.04 0.11 0.08 0.06 0.03 0.02
0.01 0.01 0.01 0.01 0.02 0.01 0.00 0.00 0.00 0.00 0.00 0.00 0.00 0.00 0.00 0.00 0.00 0.00 0.00 0.00 0.01 0.01 0.01 0.01 0.01 0.02 0.04 0.01 0.00 0.01 0.00 0.00 0.01 0.00 0.00 0.01 0.05 0.06 0.04 0.06 0.07 0.05 0.05 0.04
0.02 0.01 0.01 0.01 0.03 0.03 0.01 0.00 0.00 0.00 0.00 0.00 0.00 0.00 0.00 0.00 0.00 0.00 0.00 0.00 0.00 0.01 0.00 0.02 0.04 0.02 0.01 0.01 0.00 0.00 0.03 0.04 0.01 0.00 0.00 0.01 0.01 0.00 0.00 0.02 0.05 0.02 0.02 0.01
0.02 0.02 0.02 0.02 0.05 0.06 0.04 0.04 0.01 0.00 0.00 0.00 0.00 0.00 0.00 0.00 0.00 0.00 0.00 0.00 0.00 0.00 0.00 0.00 0.00 0.00 0.00 0.00 0.00 0.00 0.01 0.02 0.01 0.00 0.00 0.00 0.00 0.00 0.00 0.00 0.00 0.03 0.01 0.01
0.03 0.03 0.04 0.04 0.07 0.13 0.09 0.06 0.02 0.03 0.02 0.00 0.00 0.00 0.00 0.00 0.00 0.00 0.00 0.01 0.01 0.00 0.01 0.01 0.00 0.00 0.00 0.00 0.00 0.00 0.01 0.02 0.01 0.01 0.00 0.00 0.00 0.00 0.00 0.00 0.00 0.00 0.00 0.00
0.03 0.03 0.04 0.04 0.07 0.18 0.17 0.07 0.05 0.15 0.11 0.02 0.01 0.00 0.00 0.00 0.01 0.02 0.00 0.01 0.04 0.01 0.01 0.01 0.00 0.00 0.00 0.00 0.01 0.04 0.05 0.04 0.03 0.01 0.00 0.00 0.00 0.00 0.00 0.00 0.00 0.00 0.01 0.03
0.03 0.04 0.03 0.04 0.05 0.15 0.23 0.18 0.21 0.29 0.14 0.06 0.02 0.00 0.00 0.00 0.01 0.06 0.02 0.04 0.11 0.04 0.00 0.00 0.00 0.00 0.00 0.00 0.00 0.03 0.06 0.05 0.05 0.01 0.00 0.01 0.00 0.00 0.00 0.00 0.00 0.00 0.00 0.01
0.02 0.02 0.03 0.03 0.03 0.07 0.18 0.21 0.30 0.35 0.25 0.06 0.03 0.02 0.01 0.02 0.00 0.02 0.04 0.01 0.02 0.00 0.02 0.03 0.01 0.00 0.00 0.00 0.00 0.01 0.04 0.06 0.05 0.02 0.01 0.00 0.00 0.00 0.00 0.00 0.00 0.00 0.00 0.00
0.03 0.03 0.02 0.03 0.04 0.07 0.15 0.15 0.24 0.45 0.41 0.17 0.06 0.09 0.06 0.05 0.03 0.02 0.01 0.00 0.00 0.01 0.05 0.05 0.03 0.00 0.00 0.00 0.00 0.01 0.02 0.03 0.06 0.02 0.03 0.01 0.00 0.00 0.00 0.00 0.00 0.00 0.00 0.00
0.03 0.03 0.04 0.05 0.05 0.06 0.14 0.13 0.17 0.47 0.49 0.14 0.04 0.08 0.07 0.04 0.02 0.06 0.01 0.00 0.01 0.02 0.06 0.05 0.02 0.01 0.00 0.00 0.01 0.02 0.03 0.03 0.04 0.02 0.06 0.01 0.00 0.00 0.00 0.00 0.00 0.00 0.00 0.00
0.04 0.04 0.05 0.05 0.06 0.07 0.15 0.07 0.08 0.25 0.41 0.17 0.04 0.02 0.03 0.05 0.04 0.07 0.10 0.12 0.06 0.02 0.03 0.02 0.02 0.01 0.01 0.00 0.00 0.00 0.00 0.03 0.01 0.01 0.02 0.01 0.00 0.00 0.00 0.02 0.01 0.01 0.03 0.03
0.04 0.05 0.05 0.06 0.08 0.11 0.15 0.13 0.04 0.07 0.30 0.20 0.03 0.00 0.00 0.00 0.01 0.10 0.11 0.06 0.02 0.04 0.03 0.02 0.02 0.01 0.01 0.00 0.00 0.00 0.00 0.00 0.01 0.01 0.01 0.00 0.00 0.01 0.05 0.05 0.03 0.03 0.03 0.02
0.03 0.05 0.07 0.09 0.09 0.08 0.12 0.12 0.12 0.21 0.27 0.11 0.02 0.00 0.00 0.00 0.00 0.01 0.11 0.06 0.04 0.06 0.02 0.04 0.04 0.03 0.00 0.01 0.01 0.00 0.00 0.00 0.03 0.03 0.00 0.01 0.04 0.04 0.03 0.02 0.01 0.01 0.00 0.00
0.06 0.09 0.09 0.08 0.08 0.07 0.08 0.03 0.01 0.06 0.17 0.07 0.00 0.00 0.00 0.00 0.00 0.00 0.03 0.08 0.16 0.12 0.10 0.11 0.07 0.03 0.01 0.01 0.01 0.01 0.02 0.07 0.04 0.05 0.03 0.03 0.02 0.01 0.00 0.00 0.00 0.00 0.00 0.00
0.08 0.10 0.09 0.09 0.08 0.04 0.02 0.01 0.00 0.01 0.06 0.08 0.01 0.00 0.00 0.00 0.00 0.00 0.02 0.08 0.13 0.12 0.11 0.08 0.04 0.02 0.04 0.03 0.02 0.01 0.00 0.02 0.04 0.04 0.02 0.00 0.00 0.00 0.00 0.00 0.00 0.01 0.00 0.00
0.10 0.11 0.11 0.12 0.09 0.03 0.00 0.00 0.00 0.00 0.06 0.12 0.01 0.00 0.00 0.00 0.00 0.00 0.01 0.03 0.06 0.08 0.06 0.05 0.04 0.04 0.07 0.06 0.01 0.00 0.00 0.00 0.00 0.01 0.00 0.00 0.00 0.00 0.00 0.00 0.00 0.01 0.00 0.00
0.12 0.14 0.15 0.08 0.05 0.00 0.00 0.00 0.00 0.00 0.02 0.06 0.01 0.00 0.00 0.00 0.00 0.00 0.00 0.02 0.04 0.07 0.07 0.05 0.05 0.06 0.05 0.04 0.00 0.00 0.00 0.00 0.00 0.00 0.00 0.00 0.00 0.00 0.00 0.00 0.00 0.00 0.00 0.00
0.13 0.15 0.09 0.06 0.06 0.02 0.01 0.01 0.01 0.01 0.04 0.02 0.01 0.00 0.00 0.00 0.00 0.00 0.01 0.02 0.04 0.05 0.06 0.03 0.03 0.03 0.02 0.01 0.00 0.00 0.00 0.00 0.00 0.00 0.00 0.00 0.00 0.00 0.00 0.00 0.00 0.00 0.00 0.00
0.14 0.10 0.06 0.03 0.01 0.00 0.01 0.02 0.05 0.10 0.07 0.05 0.01 0.00 0.00 0.00 0.00 0.00 0.00 0.01 0.02 0.02 0.03 0.02 0.01 0.01 0.01 0.00 0.00 0.00 0.00 0.00 0.00 0.00 0.00 0.00 0.00 0.00 0.00 0.00 0.00 0.00 0.00 0.00
0.15 0.02 0.00 0.01 0.02 0.01 0.01 0.00 0.00 0.03 0.03 0.03 0.01 0.00 0.00 0.00 0.00 0.01 0.01 0.01 0.02 0.02 0.01 0.01 0.01 0.00 0.00 0.00 0.00 0.00 0.00 0.00 0.00 0.00 0.00 0.00 0.00 0.00 0.00 0.00 0.00 0.00 0.00 0.00
0.04 0.01 0.02 0.02 0.01 0.00 0.00 0.00 0.00 0.00 0.00 0.00 0.01 0.01 0.03 0.01 0.01 0.01 0.02 0.02 0.01 0.02 0.01 0.01 0.00 0.00 0.00 0.00 0.00 0.00 0.00 0.00 0.00 0.00 0.00 0.00 0.00 0.00 0.00 0.00 0.00 0.00 0.00 0.00
0.00 0.00 0.01 0.00 0.00 0.00 0.00 0.00 0.00 0.00 0.00 0.00 0.01 0.01 0.01 0.01 0.01 0.00 0.01 0.01 0.01 0.02 0.02 0.01 0.00 0.00 0.00 0.00 0.00 0.00 0.00 0.00 0.00 0.00 0.00 0.00 0.00 0.00 0.00 0.00 0.00 0.00 0.00 0.00
0.00 0.00 0.00 0.00 0.00 0.00 0.00 0.00 0.00 0.00 0.00 0.00 0.01 0.01 0.01 0.00 0.00 0.00 0.01 0.01 0.02 0.01 0.01 0.00 0.00 0.00 0.00 0.00 0.00 0.00 0.00 0.00 0.00 0.00 0.00 0.00 0.00 0.00 0.00 0.00 0.00 0.00 0.00 0.00
0.00 0.00 0.00 0.00 0.00 0.00 0.00 0.00 0.00 0.00 0.00 0.01 0.00 0.01 0.00 0.00 0.00 0.00 0.01 0.01 0.01 0.01 0.01 0.00 0.00 0.00 0.00 0.00 0.00 0.00 0.00 0.00 0.00 0.00 0.00 0.00 0.00 0.00 0.00 0.00 0.00 0.00 0.00 0.00
0.00 0.00 0.00 0.00 0.00 0.00 0.00 0.00 0.00 0.00 0.00 0.00 0.01 0.00 0.00 0.00 0.00 0.00 0.00 0.00 0.01 0.01 0.02 0.01 0.00 0.00 0.00 0.00 0.00 0.00 0.00 0.00 0.00 0.00 0.00 0.00 0.00 0.00 0.00 0.00 0.00 0.00 0.00 0.00
0.00 0.00 0.00 0.00 0.00 0.00 0.00 0.00 0.00 0.00 0.00 0.00 0.00 0.00 0.00 0.00 0.00 0.00 0.00 0.00 0.00 0.01 0.01 0.02 0.01 0.01 0.01 0.01 0.00 0.00 0.00 0.00 0.00 0.00 0.00 0.00 0.00 0.00 0.00 0.00 0.00 0.00 0.00 0.00
0.00 0.00 0.00 0.00 0.00 0.00 0.00 0.01 0.00 0.00 0.00 0.00 0.00 0.00 0.00 0.00 0.00 0.00 0.00 0.00 0.00 0.00 0.00 0.01 0.01 0.01 0.00 0.00 0.00 0.00 0.00 0.00 0.00 0.00 0.00 0.00 0.00 0.00 0.00 0.00 0.00 0.00 0.00 0.00

GFSNW_prec_precacc6_318.txt.gz
Total_Precipitation_Accumulation
0.01 0.00 0.01 0.01 0.02 0.03 0.00 0.00 0.00 0.00 0.00 0.00 0.00 0.00 0.00 0.00 0.00 0.00 0.00 0.00 0.00 0.01 0.02 0.03 0.01 0.01 0.09 0.05 0.01 0.03 0.02 0.03 0.02 0.01 0.00 0.00 0.00 0.00 0.01 0.05 0.05 0.06 0.03 0.02
0.01 0.01 0.01 0.02 0.02 0.05 0.01 0.01 0.00 0.00 0.00 0.00 0.00 0.00 0.00 0.00 0.00 0.00 0.00 0.00 0.01 0.01 0.01 0.02 0.02 0.03 0.06 0.05 0.02 0.07 0.07 0.02 0.00 0.00 0.00 0.01 0.01 0.01 0.01 0.02 0.03 0.02 0.03 0.04
0.02 0.01 0.01 0.01 0.02 0.06 0.02 0.02 0.02 0.00 0.00 0.00 0.00 0.00 0.00 0.00 0.00 0.00 0.00 0.00 0.00 0.01 0.01 0.01 0.04 0.02 0.01 0.02 0.01 0.01 0.04 0.04 0.02 0.00 0.00 0.02 0.01 0.00 0.00 0.02 0.04 0.01 0.00 0.01
0.02 0.02 0.01 0.01 0.03 0.08 0.06 0.09 0.03 0.01 0.01 0.00 0.00 0.00 0.00 0.00 0.00 0.00 0.00 0.00 0.00 0.02 0.01 0.00 0.00 0.00 0.00 0.00 0.00 0.00 0.02 0.02 0.00 0.00 0.00 0.00 0.00 0.00 0.00 0.00 0.00 0.01 0.00 0.00
0.02 0.02 0.02 0.03 0.04 0.10 0.07 0.09 0.08 0.06 0.05 0.01 0.01 0.01 0.01 0.00 0.00 0.00 0.00 0.01 0.01 0.02 0.02 0.01 0.01 0.01 0.01 0.01 0.00 0.01 0.02 0.02 0.01 0.00 0.00 0.00 0.00 0.00 0.00 0.00 0.00 0.00 0.00 0.00
0.01 0.02 0.02 0.02 0.06 0.12 0.08 0.08 0.09 0.20 0.15 0.05 0.04 0.01 0.01 0.02 0.00 0.01 0.00 0.01 0.03 0.01 0.01 0.01 0.00 0.00 0.00 0.01 0.01 0.04 0.05 0.04 0.05 0.02 0.00 0.00 0.00 0.00 0.00 0.00 0.00 0.00 0.02 0.04
0.02 0.03 0.02 0.04 0.07 0.09 0.14 0.09 0.19 0.31 0.17 0.09 0.06 0.02 0.01 0.01 0.01 0.06 0.01 0.03 0.07 0.04 0.01 0.00 0.00 0.00 0.00 0.00 0.00 0.02 0.07 0.04 0.06 0.03 0.00 0.01 0.00 0.00 0.00 0.00 0.00 0.00 0.01 0.01
0.02 0.02 0.04 0.04 0.03 0.05 0.15 0.12 0.23 0.33 0.27 0.09 0.07 0.07 0.09 0.12 0.11 0.05 0.01 0.00 0.01 0.00 0.00 0.03 0.01 0.00 0.02 0.02 0.00 0.01 0.03 0.06 0.06 0.03 0.01 0.01 0.00 0.00 0.00 0.00 0.00 0.00 0.00 0.01
0.02 0.03 0.03 0.04 0.04 0.07 0.15 0.09 0.18 0.40 0.40 0.16 0.09 0.13 0.08 0.08 0.12 0.05 0.00 0.00 0.00 0.00 0.02 0.05 0.04 0.01 0.01 0.02 0.01 0.01 0.03 0.04 0.07 0.03 0.02 0.01 0.00 0.00 0.00 0.00 0.00 0.00 0.00 0.00
0.03 0.04 0.04 0.05 0.05 0.06 0.17 0.10 0.09 0.36 0.37 0.08 0.04 0.13 0.16 0.13 0.08 0.03 0.01 0.00 0.00 0.01 0.03 0.05 0.04 0.02 0.00 0.02 0.04 0.03 0.05 0.04 0.03 0.02 0.05 0.01 0.00 0.00 0.00 0.00 0.00 0.00 0.00 0.00
0.03 0.04 0.04 0.03 0.04 0.08 0.17 0.07 0.07 0.27 0.33 0.11 0.05 0.06 0.09 0.09 0.03 0.04 0.06 0.07 0.06 0.04 0.03 0.03 0.03 0.02 0.04 0.01 0.03 0.01 0.02 0.03 0.02 0.01 0.03 0.01 0.00 0.00 0.00 0.00 0.01 0.00 0.00 0.00
0.03 0.04 0.04 0.06 0.10 0.14 0.16 0.13 0.08 0.10 0.23 0.17 0.08 0.06 0.03 0.05 0.04 0.10 0.08 0.05 0.02 0.03 0.04 0.04 0.04 0.02 0.02 0.01 0.01 0.00 0.00 0.00 0.02 0.03 0.01 0.00 0.00 0.00 0.01 0.01 0.01 0.01 0.01 0.00
0.05 0.06 0.09 0.12 0.14 0.13 0.13 0.16 0.15 0.06 0.11 0.06 0.01 0.01 0.00 0.00 0.00 0.01 0.07 0.07 0.07 0.06 0.03 0.08 0.06 0.03 0.01 0.01 0.01 0.00 0.00 0.00 0.01 0.02 0.00 0.01 0.00 0.01 0.01 0.00 0.00 0.00 0.00 0.00
0.08 0.11 0.12 0.12 0.12 0.10 0.12 0.17 0.04 0.01 0.06 0.04 0.02 0.00 0.00 0.00 0.00 0.00 0.03 0.09 0.12 0.10 0.09 0.12 0.08 0.04 0.01 0.01 0.02 0.01 0.03 0.06 0.03 0.03 0.02 0.01 0.01 0.00 0.00 0.00 0.00 0.00 0.00 0.00
0.09 0.10 0.10 0.12 0.13 0.07 0.05 0.02 0.00 0.02 0.05 0.07 0.01 0.00 0.00 0.00 0.00 0.00 0.01 0.07 0.11 0.09 0.08 0.07 0.04 0.03 0.03 0.02 0.02 0.01 0.00 0.03 0.05 0.07 0.05 0.01 0.00 0.00 0.00 0.00 0.00 0.00 0.00 0.00
0.10 0.09 0.11 0.16 0.10 0.04 0.00 0.01 0.00 0.00 0.02 0.04 0.01 0.00 0.00 0.00 0.00 0.00 0.00 0.01 0.03 0.05 0.06 0.05 0.05 0.03 0.04 0.04 0.02 0.00 0.00 0.00 0.00 0.02 0.00 0.00 0.00 0.00 0.00 0.00 0.00 0.00 0.00 0.00
0.08 0.10 0.12 0.06 0.05 0.00 0.01 0.01 0.01 0.00 0.01 0.03 0.02 0.01 0.00 0.00 0.00 0.00 0.00 0.01 0.02 0.04 0.06 0.04 0.05 0.03 0.04 0.04 0.00 0.00 0.00 0.00 0.00 0.00 0.00 0.00 0.00 0.00 0.00 0.00 0.00 0.00 0.00 0.00
0.05 0.10 0.05 0.05 0.05 0.02 0.00 0.00 0.01 0.01 0.02 0.01 0.02 0.00 0.00 0.00 0.00 0.00 0.00 0.00 0.01 0.02 0.04 0.02 0.02 0.02 0.02 0.01 0.00 0.00 0.00 0.00 0.00 0.00 0.00 0.00 0.00 0.00 0.00 0.00 0.00 0.00 0.00 0.00
0.04 0.06 0.00 0.01 0.01 0.01 0.01 0.01 0.01 0.03 0.03 0.04 0.01 0.01 0.01 0.00 0.00 0.00 0.00 0.00 0.02 0.01 0.02 0.01 0.01 0.01 0.01 0.00 0.00 0.00 0.00 0.00 0.00 0.00 0.00 0.00 0.00 0.00 0.00 0.00 0.00 0.00 0.00 0.00
0.06 0.01 0.00 0.00 0.01 0.00 0.00 0.00 0.00 0.01 0.00 0.00 0.01 0.01 0.02 0.00 0.00 0.01 0.01 0.01 0.01 0.01 0.01 0.00 0.01 0.00 0.00 0.00 0.00 0.00 0.00 0.00 0.00 0.00 0.00 0.00 0.00 0.00 0.00 0.00 0.00 0.00 0.00 0.00
0.02 0.00 0.00 0.00 0.00 0.00 0.00 0.00 0.00 0.00 0.00 0.00 0.00 0.01 0.02 0.01 0.01 0.01 0.01 0.01 0.01 0.01 0.01 0.01 0.00 0.00 0.00 0.00 0.00 0.00 0.00 0.00 0.00 0.00 0.00 0.00 0.00 0.00 0.00 0.00 0.00 0.00 0.00 0.00
0.00 0.00 0.00 0.00 0.00 0.00 0.00 0.00 0.00 0.00 0.00 0.00 0.00 0.01 0.01 0.01 0.00 0.01 0.00 0.01 0.01 0.02 0.01 0.00 0.00 0.00 0.00 0.00 0.00 0.00 0.00 0.00 0.00 0.00 0.00 0.00 0.00 0.00 0.00 0.00 0.00 0.00 0.00 0.00
0.00 0.00 0.00 0.00 0.00 0.00 0.00 0.00 0.00 0.00 0.00 0.00 0.00 0.01 0.01 0.00 0.00 0.00 0.00 0.01 0.01 0.01 0.00 0.00 0.00 0.00 0.00 0.00 0.00 0.00 0.00 0.00 0.00 0.00 0.00 0.00 0.00 0.00 0.00 0.00 0.00 0.00 0.00 0.00
0.00 0.00 0.00 0.00 0.00 0.00 0.00 0.00 0.00 0.00 0.00 0.00 0.00 0.01 0.00 0.00 0.00 0.00 0.00 0.01 0.01 0.01 0.01 0.01 0.00 0.00 0.00 0.00 0.00 0.00 0.00 0.00 0.00 0.00 0.00 0.00 0.00 0.00 0.00 0.00 0.00 0.00 0.00 0.00
0.00 0.00 0.00 0.00 0.00 0.00 0.00 0.00 0.00 0.00 0.00 0.00 0.01 0.01 0.00 0.00 0.00 0.00 0.00 0.00 0.00 0.01 0.01 0.01 0.00 0.00 0.00 0.00 0.00 0.00 0.00 0.00 0.00 0.00 0.00 0.00 0.00 0.00 0.00 0.00 0.00 0.00 0.00 0.00
0.00 0.00 0.00 0.00 0.00 0.00 0.00 0.00 0.00 0.00 0.00 0.00 0.00 0.00 0.00 0.00 0.00 0.00 0.00 0.00 0.00 0.00 0.00 0.00 0.00 0.00 0.00 0.00 0.00 0.00 0.00 0.00 0.00 0.00 0.00 0.00 0.00 0.00 0.00 0.00 0.00 0.00 0.00 0.00
0.00 0.00 0.00 0.00 0.00 0.00 0.00 0.00 0.00 0.00 0.00 0.00 0.00 0.00 0.00 0.00 0.00 0.00 0.00 0.00 0.00 0.00 0.00 0.00 0.00 0.00 0.00 0.00 0.00 0.00 0.00 0.00 0.00 0.00 0.00 0.00 0.00 0.00 0.00 0.00 0.00 0.00 0.00 0.00

GFSNW_prec_precacc6_321.txt.gz
Total_Precipitation_Accumulation
0.02 0.01 0.01 0.02 0.01 0.03 0.01 0.01 0.01 0.00 0.00 0.00 0.00 0.00 0.00 0.00 0.00 0.00 0.00 0.00 0.00 0.01 0.01 0.02 0.02 0.03 0.13 0.08 0.03 0.07 0.07 0.06 0.03 0.03 0.01 0.00 0.00 0.00 0.01 0.04 0.02 0.03 0.01 0.01
0.02 0.01 0.01 0.02 0.01 0.05 0.02 0.02 0.01 0.00 0.00 0.00 0.00 0.00 0.00 0.00 0.00 0.00 0.00 0.00 0.00 0.00 0.00 0.02 0.02 0.05 0.07 0.04 0.01 0.07 0.09 0.04 0.02 0.01 0.01 0.02 0.00 0.00 0.00 0.01 0.01 0.01 0.01 0.03
0.04 0.02 0.01 0.01 0.01 0.06 0.03 0.03 0.03 0.00 0.00 0.00 0.00 0.01 0.01 0.00 0.00 0.00 0.00 0.00 0.00 0.00 0.00 0.01 0.02 0.00 0.00 0.01 0.00 0.01 0.03 0.04 0.04 0.02 0.01 0.02 0.01 0.00 0.00 0.01 0.02 0.01 0.00 0.00
0.04 0.02 0.00 0.01 0.02 0.09 0.04 0.08 0.05 0.01 0.02 0.00 0.01 0.02 0.03 0.01 0.01 0.00 0.00 0.00 0.00 0.02 0.01 0.00 0.00 0.00 0.00 0.00 0.00 0.00 0.01 0.03 0.00 0.00 0.00 0.00 0.00 0.00 0.00 0.00 0.00 0.00 0.00 0.00
0.02 0.01 0.01 0.03 0.03 0.09 0.05 0.08 0.09 0.06 0.06 0.02 0.02 0.03 0.04 0.01 0.00 0.02 0.03 0.00 0.00 0.01 0.01 0.00 0.01 0.00 0.01 0.01 0.00 0.01 0.02 0.02 0.00 0.00 0.00 0.00 0.00 0.00 0.00 0.00 0.00 0.00 0.00 0.00
0.01 0.01 0.02 0.02 0.06 0.12 0.07 0.07 0.08 0.18 0.11 0.03 0.05 0.02 0.04 0.07 0.06 0.07 0.03 0.03 0.01 0.00 0.00 0.01 0.00 0.00 0.00 0.01 0.01 0.02 0.04 0.03 0.04 0.02 0.00 0.00 0.00 0.00 0.00 0.00 0.00 0.00 0.01 0.02
0.01 0.02 0.02 0.04 0.08 0.12 0.15 0.07 0.21 0.32 0.18 0.07 0.06 0.06 0.05 0.03 0.07 0.26 0.16 0.09 0.06 0.01 0.00 0.00 0.00 0.00 0.00 0.00 0.00 0.02 0.07 0.04 0.06 0.03 0.01 0.01 0.00 0.00 0.00 0.00 0.00 0.00 0.00 0.01
0.02 0.02 0.04 0.06 0.07 0.10 0.18 0.10 0.26 0.41 0.28 0.06 0.06 0.06 0.09 0.12 0.14 0.12 0.08 0.04 0.01 0.00 0.00 0.00 0.00 0.00 0.02 0.03 0.00 0.00 0.04 0.07 0.07 0.05 0.03 0.01 0.01 0.00 0.00 0.00 0.00 0.00 0.00 0.01
0.02 0.03 0.05 0.06 0.06 0.11 0.15 0.07 0.16 0.43 0.45 0.09 0.10 0.05 0.02 0.04 0.12 0.10 0.02 0.00 0.00 0.00 0.00 0.02 0.03 0.02 0.01 0.02 0.02 0.00 0.03 0.08 0.07 0.04 0.02 0.01 0.00 0.00 0.00 0.00 0.00 0.00 0.00 0.00
0.04 0.05 0.05 0.06 0.06 0.07 0.13 0.07 0.10 0.41 0.49 0.15 0.02 0.05 0.11 0.15 0.14 0.02 0.00 0.01 0.00 0.00 0.01 0.02 0.03 0.03 0.01 0.01 0.08 0.04 0.05 0.04 0.02 0.02 0.03 0.00 0.00 0.00 0.00 0.00 0.00 0.00 0.00 0.00
0.05 0.06 0.06 0.05 0.05 0.08 0.19 0.15 0.07 0.34 0.37 0.03 0.02 0.05 0.16 0.18 0.10 0.07 0.06 0.05 0.02 0.03 0.02 0.02 0.03 0.02 0.06 0.01 0.07 0.06 0.05 0.03 0.02 0.01 0.01 0.00 0.00 0.00 0.00 0.00 0.00 0.00 0.00 0.00
0.05 0.06 0.07 0.07 0.10 0.14 0.19 0.14 0.15 0.30 0.09 0.05 0.05 0.06 0.04 0.10 0.20 0.17 0.07 0.05 0.02 0.03 0.03 0.03 0.03 0.02 0.01 0.01 0.00 0.00 0.00 0.00 0.02 0.07 0.02 0.00 0.00 0.00 0.00 0.00 0.00 0.00 0.00 0.00
0.05 0.07 0.09 0.10 0.12 0.11 0.10 0.15 0.25 0.03 0.00 0.00 0.01 0.01 0.00 0.00 0.00 0.00 0.03 0.03 0.11 0.10 0.03 0.06 0.05 0.02 0.01 0.01 0.01 0.00 0.00 0.00 0.00 0.00 0.00 0.01 0.00 0.00 0.00 0.00 0.00 0.00 0.00 0.00
0.05 0.06 0.07 0.08 0.08 0.06 0.08 0.18 0.07 0.00 0.01 0.01 0.01 0.00 0.00 0.00 0.00 0.00 0.01 0.07 0.11 0.08 0.04 0.07 0.05 0.03 0.01 0.01 0.01 0.01 0.02 0.02 0.01 0.01 0.02 0.02 0.02 0.00 0.00 0.00 0.00 0.00 0.00 0.00
0.05 0.04 0.04 0.06 0.09 0.05 0.04 0.01 0.00 0.01 0.02 0.04 0.01 0.00 0.00 0.00 0.00 0.00 0.00 0.03 0.05 0.03 0.03 0.03 0.03 0.04 0.01 0.01 0.01 0.01 0.01 0.04 0.05 0.05 0.05 0.03 0.01 0.00 0.00 0.00 0.00 0.00 0.00 0.00
0.04 0.03 0.04 0.09 0.05 0.02 0.00 0.00 0.00 0.00 0.00 0.01 0.01 0.01 0.00 0.00 0.00 0.00 0.00 0.00 0.01 0.03 0.05 0.05 0.04 0.02 0.02 0.02 0.02 0.02 0.01 0.00 0.00 0.01 0.00 0.00 0.00 0.00 0.00 0.00 0.00 0.00 0.00 0.00
0.01 0.01 0.01 0.02 0.02 0.00 0.00 0.01 0.01 0.00 0.00 0.01 0.02 0.01 0.00 0.00 0.00 0.00 0.00 0.00 0.00 0.02 0.04 0.02 0.03 0.02 0.02 0.02 0.01 0.00 0.00 0.00 0.00 0.00 0.00 0.00 0.00 0.00 0.00 0.00 0.00 0.00 0.00 0.00
0.00 0.01 0.02 0.02 0.01 0.00 0.00 0.00 0.01 0.01 0.00 0.01 0.01 0.00 0.00 0.00 0.00 0.00 0.00 0.00 0.00 0.00 0.02 0.01 0.00 0.01 0.00 0.00 0.01 0.00 0.00 0.00 0.00 0.00 0.00 0.00 0.00 0.00 0.00 0.00 0.00 0.00 0.00 0.00
0.00 0.00 0.00 0.00 0.00 0.00 0.00 0.00 0.00 0.00 0.00 0.01 0.00 0.01 0.01 0.00 0.00 0.00 0.00 0.00 0.01 0.00 0.01 0.00 0.00 0.01 0.00 0.00 0.00 0.00 0.00 0.00 0.00 0.00 0.00 0.00 0.00 0.00 0.00 0.00 0.00 0.00 0.00 0.00
0.00 0.00 0.00 0.00 0.00 0.00 0.00 0.00 0.00 0.00 0.00 0.00 0.01 0.01 0.02 0.00 0.00 0.01 0.00 0.00 0.00 0.01 0.00 0.00 0.00 0.00 0.00 0.00 0.00 0.00 0.00 0.00 0.00 0.00 0.00 0.00 0.00 0.00 0.00 0.00 0.00 0.00 0.00 0.00
0.00 0.00 0.00 0.00 0.00 0.00 0.00 0.00 0.00 0.00 0.00 0.00 0.00 0.00 0.01 0.00 0.01 0.01 0.00 0.00 0.00 0.01 0.00 0.00 0.00 0.00 0.00 0.00 0.00 0.00 0.00 0.00 0.00 0.00 0.00 0.00 0.00 0.00 0.00 0.00 0.00 0.00 0.00 0.00
0.00 0.00 0.00 0.00 0.00 0.00 0.00 0.00 0.00 0.00 0.00 0.00 0.00 0.01 0.00 0.00 0.00 0.01 0.00 0.00 0.00 0.00 0.00 0.00 0.00 0.00 0.00 0.00 0.00 0.00 0.00 0.00 0.00 0.00 0.00 0.00 0.00 0.00 0.00 0.00 0.00 0.00 0.00 0.00
0.00 0.00 0.00 0.00 0.00 0.00 0.00 0.00 0.00 0.00 0.00 0.00 0.01 0.01 0.00 0.00 0.00 0.00 0.00 0.00 0.00 0.00 0.00 0.00 0.00 0.00 0.00 0.00 0.00 0.00 0.00 0.00 0.00 0.00 0.00 0.00 0.00 0.00 0.00 0.00 0.00 0.00 0.00 0.00
0.00 0.00 0.00 0.00 0.00 0.00 0.00 0.00 0.00 0.00 0.00 0.00 0.00 0.01 0.00 0.00 0.00 0.00 0.00 0.00 0.00 0.00 0.01 0.01 0.00 0.00 0.00 0.00 0.00 0.00 0.00 0.00 0.00 0.00 0.00 0.00 0.00 0.00 0.00 0.00 0.00 0.00 0.00 0.00
0.00 0.00 0.00 0.00 0.00 0.00 0.00 0.00 0.00 0.00 0.00 0.00 0.01 0.01 0.00 0.00 0.00 0.00 0.00 0.00 0.00 0.00 0.01 0.00 0.00 0.00 0.00 0.00 0.00 0.00 0.00 0.00 0.00 0.00 0.00 0.00 0.00 0.00 0.00 0.00 0.00 0.00 0.00 0.00
0.00 0.00 0.00 0.00 0.00 0.00 0.00 0.00 0.00 0.00 0.00 0.00 0.00 0.00 0.00 0.00 0.00 0.00 0.00 0.00 0.00 0.01 0.00 0.00 0.00 0.00 0.00 0.00 0.00 0.00 0.00 0.00 0.00 0.00 0.00 0.00 0.00 0.00 0.00 0.00 0.00 0.00 0.00 0.00
0.00 0.00 0.00 0.00 0.00 0.00 0.00 0.00 0.00 0.00 0.00 0.00 0.00 0.00 0.00 0.00 0.00 0.00 0.00 0.00 0.00 0.00 0.00 0.00 0.00 0.00 0.00 0.00 0.00 0.00 0.00 0.00 0.00 0.00 0.00 0.00 0.00 0.00 0.00 0.00 0.00 0.00 0.00 0.00

GFSNW_prec_precacc6_327.txt.gz
Total_Precipitation_Accumulation
0.02 0.02 0.02 0.02 0.01 0.02 0.01 0.00 0.00 0.00 0.00 0.00 0.00 0.03 0.02 0.01 0.00 0.00 0.00 0.00 0.00 0.00 0.00 0.00 0.00 0.01 0.03 0.00 0.00 0.02 0.03 0.10 0.11 0.15 0.13 0.08 0.05 0.06 0.09 0.14 0.06 0.04 0.02 0.02
0.02 0.02 0.01 0.01 0.01 0.06 0.03 0.00 0.00 0.00 0.00 0.00 0.02 0.00 0.00 0.01 0.00 0.00 0.00 0.02 0.01 0.00 0.00 0.00 0.00 0.00 0.00 0.00 0.00 0.00 0.00 0.04 0.03 0.02 0.04 0.06 0.08 0.04 0.03 0.04 0.05 0.04 0.02 0.07
0.01 0.01 0.02 0.01 0.02 0.10 0.03 0.01 0.02 0.00 0.00 0.00 0.02 0.01 0.01 0.00 0.00 0.02 0.02 0.02 0.00 0.00 0.00 0.00 0.00 0.00 0.00 0.00 0.00 0.00 0.00 0.00 0.02 0.02 0.05 0.04 0.02 0.04 0.04 0.01 0.01 0.02 0.02 0.05
0.01 0.01 0.01 0.01 0.03 0.11 0.02 0.06 0.05 0.04 0.02 0.00 0.00 0.03 0.04 0.00 0.06 0.05 0.01 0.01 0.00 0.02 0.02 0.01 0.00 0.00 0.00 0.00 0.00 0.00 0.00 0.00 0.00 0.00 0.00 0.01 0.00 0.00 0.00 0.01 0.00 0.00 0.01 0.03
0.01 0.01 0.02 0.03 0.05 0.10 0.03 0.05 0.09 0.19 0.09 0.01 0.01 0.03 0.06 0.02 0.06 0.04 0.03 0.05 0.01 0.08 0.09 0.04 0.02 0.00 0.00 0.00 0.00 0.00 0.00 0.00 0.00 0.00 0.00 0.00 0.00 0.00 0.00 0.00 0.00 0.00 0.00 0.00
0.01 0.02 0.02 0.03 0.07 0.12 0.09 0.11 0.18 0.26 0.12 0.02 0.05 0.11 0.14 0.06 0.02 0.02 0.05 0.08 0.13 0.18 0.13 0.04 0.01 0.00 0.00 0.00 0.01 0.01 0.02 0.00 0.00 0.00 0.01 0.01 0.00 0.00 0.00 0.00 0.00 0.00 0.00 0.00
0.02 0.02 0.02 0.02 0.05 0.12 0.10 0.13 0.22 0.25 0.11 0.05 0.10 0.15 0.04 0.00 0.00 0.03 0.02 0.13 0.16 0.11 0.02 0.00 0.00 0.00 0.00 0.00 0.01 0.02 0.05 0.04 0.04 0.01 0.00 0.01 0.00 0.00 0.00 0.00 0.00 0.00 0.00 0.00
0.02 0.02 0.03 0.02 0.03 0.06 0.05 0.04 0.06 0.09 0.10 0.08 0.13 0.07 0.00 0.00 0.00 0.00 0.02 0.07 0.08 0.01 0.00 0.00 0.00 0.00 0.00 0.00 0.00 0.01 0.06 0.12 0.09 0.02 0.02 0.00 0.03 0.00 0.00 0.00 0.00 0.00 0.00 0.00
0.02 0.02 0.02 0.02 0.02 0.03 0.03 0.00 0.05 0.05 0.12 0.21 0.14 0.03 0.00 0.03 0.03 0.00 0.00 0.00 0.00 0.00 0.00 0.00 0.00 0.00 0.02 0.01 0.00 0.01 0.04 0.15 0.09 0.01 0.01 0.02 0.03 0.00 0.00 0.00 0.00 0.00 0.00 0.01
0.01 0.01 0.02 0.01 0.01 0.02 0.02 0.02 0.06 0.09 0.23 0.11 0.02 0.01 0.06 0.10 0.07 0.06 0.01 0.00 0.00 0.00 0.00 0.00 0.01 0.02 0.04 0.03 0.11 0.09 0.04 0.06 0.08 0.03 0.04 0.02 0.03 0.00 0.00 0.00 0.00 0.00 0.00 0.01
0.00 0.01 0.01 0.00 0.02 0.01 0.01 0.02 0.01 0.06 0.19 0.01 0.00 0.01 0.06 0.03 0.06 0.16 0.06 0.01 0.00 0.00 0.00 0.00 0.00 0.01 0.01 0.01 0.06 0.07 0.05 0.05 0.03 0.00 0.00 0.00 0.01 0.00 0.00 0.00 0.00 0.00 0.00 0.00
0.00 0.00 0.01 0.00 0.00 0.00 0.01 0.00 0.00 0.00 0.00 0.00 0.00 0.00 0.01 0.02 0.06 0.06 0.01 0.01 0.01 0.01 0.02 0.00 0.01 0.00 0.00 0.00 0.00 0.00 0.00 0.00 0.04 0.08 0.03 0.01 0.00 0.00 0.00 0.00 0.00 0.00 0.00 0.00
0.00 0.00 0.00 0.00 0.00 0.00 0.00 0.00 0.00 0.00 0.00 0.00 0.00 0.00 0.00 0.00 0.00 0.00 0.02 0.02 0.03 0.16 0.06 0.00 0.00 0.00 0.00 0.00 0.00 0.00 0.00 0.00 0.00 0.00 0.01 0.01 0.00 0.00 0.00 0.00 0.00 0.00 0.00 0.00
0.00 0.00 0.00 0.00 0.00 0.00 0.00 0.00 0.00 0.00 0.00 0.00 0.00 0.00 0.00 0.00 0.00 0.00 0.00 0.00 0.01 0.05 0.03 0.00 0.00 0.00 0.00 0.00 0.01 0.01 0.02 0.02 0.01 0.01 0.02 0.01 0.01 0.00 0.00 0.00 0.00 0.00 0.00 0.00
0.00 0.00 0.00 0.00 0.00 0.00 0.00 0.00 0.00 0.00 0.00 0.00 0.00 0.00 0.00 0.00 0.00 0.00 0.00 0.00 0.00 0.00 0.01 0.01 0.01 0.06 0.04 0.01 0.02 0.05 0.05 0.07 0.03 0.01 0.01 0.01 0.00 0.00 0.00 0.00 0.00 0.00 0.00 0.00
0.00 0.00 0.00 0.00 0.00 0.00 0.00 0.00 0.00 0.00 0.00 0.00 0.00 0.00 0.00 0.00 0.00 0.00 0.00 0.00 0.00 0.00 0.02 0.03 0.04 0.04 0.02 0.01 0.03 0.05 0.03 0.00 0.00 0.00 0.00 0.00 0.00 0.00 0.00 0.00 0.00 0.00 0.00 0.00
0.00 0.00 0.00 0.00 0.00 0.00 0.00 0.00 0.01 0.01 0.00 0.00 0.00 0.00 0.00 0.00 0.00 0.00 0.00 0.00 0.00 0.00 0.01 0.00 0.01 0.00 0.00 0.01 0.03 0.01 0.00 0.00 0.00 0.00 0.00 0.00 0.00 0.00 0.00 0.00 0.00 0.00 0.00 0.00
0.01 0.00 0.00 0.00 0.00 0.00 0.00 0.00 0.00 0.00 0.00 0.00 0.00 0.00 0.00 0.00 0.00 0.00 0.00 0.00 0.00 0.00 0.00 0.00 0.00 0.00 0.00 0.01 0.00 0.00 0.00 0.00 0.00 0.00 0.00 0.00 0.00 0.00 0.00 0.00 0.00 0.00 0.00 0.00
0.00 0.00 0.00 0.00 0.00 0.00 0.00 0.00 0.00 0.00 0.00 0.00 0.00 0.00 0.00 0.00 0.00 0.00 0.00 0.00 0.00 0.00 0.00 0.00 0.00 0.00 0.00 0.00 0.00 0.00 0.00 0.00 0.00 0.00 0.00 0.00 0.00 0.00 0.00 0.00 0.00 0.00 0.00 0.00
0.00 0.00 0.00 0.00 0.00 0.00 0.00 0.00 0.00 0.00 0.00 0.00 0.00 0.00 0.00 0.00 0.00 0.00 0.00 0.00 0.00 0.00 0.00 0.00 0.00 0.00 0.00 0.00 0.00 0.00 0.00 0.00 0.00 0.00 0.00 0.00 0.00 0.00 0.00 0.00 0.00 0.00 0.00 0.00
0.00 0.00 0.00 0.00 0.00 0.00 0.00 0.00 0.00 0.00 0.00 0.00 0.00 0.00 0.00 0.00 0.00 0.00 0.00 0.00 0.00 0.00 0.00 0.00 0.00 0.00 0.00 0.00 0.00 0.00 0.00 0.00 0.00 0.00 0.00 0.00 0.00 0.00 0.00 0.00 0.00 0.00 0.00 0.00
0.00 0.00 0.00 0.00 0.00 0.00 0.00 0.00 0.00 0.00 0.00 0.00 0.00 0.00 0.01 0.00 0.00 0.00 0.00 0.00 0.00 0.00 0.00 0.00 0.00 0.00 0.00 0.00 0.00 0.00 0.00 0.00 0.00 0.00 0.00 0.00 0.00 0.00 0.00 0.00 0.00 0.00 0.00 0.00
0.00 0.00 0.00 0.00 0.00 0.00 0.00 0.00 0.00 0.00 0.00 0.00 0.00 0.01 0.01 0.01 0.00 0.00 0.00 0.00 0.00 0.00 0.00 0.00 0.00 0.00 0.00 0.00 0.00 0.00 0.00 0.00 0.00 0.00 0.00 0.00 0.00 0.00 0.00 0.00 0.00 0.00 0.00 0.00
0.00 0.00 0.00 0.00 0.00 0.00 0.00 0.00 0.00 0.00 0.00 0.00 0.00 0.00 0.00 0.00 0.00 0.00 0.00 0.00 0.00 0.00 0.00 0.00 0.00 0.00 0.00 0.00 0.00 0.00 0.00 0.00 0.00 0.00 0.00 0.00 0.00 0.00 0.00 0.00 0.00 0.00 0.00 0.00
0.00 0.00 0.00 0.00 0.00 0.00 0.00 0.00 0.00 0.00 0.00 0.00 0.00 0.00 0.00 0.00 0.00 0.00 0.00 0.00 0.00 0.00 0.00 0.00 0.00 0.00 0.00 0.00 0.00 0.00 0.00 0.00 0.00 0.00 0.00 0.00 0.00 0.00 0.00 0.00 0.00 0.00 0.00 0.00
0.00 0.00 0.00 0.00 0.00 0.00 0.00 0.00 0.00 0.00 0.00 0.00 0.00 0.00 0.00 0.00 0.00 0.00 0.00 0.00 0.00 0.00 0.00 0.00 0.00 0.00 0.00 0.01 0.01 0.00 0.00 0.00 0.00 0.00 0.00 0.00 0.00 0.00 0.00 0.00 0.00 0.00 0.00 0.00
0.00 0.00 0.00 0.00 0.00 0.00 0.00 0.00 0.00 0.00 0.00 0.00 0.00 0.00 0.00 0.00 0.00 0.00 0.00 0.00 0.00 0.00 0.00 0.00 0.00 0.00 0.00 0.00 0.00 0.00 0.00 0.00 0.00 0.00 0.00 0.00 0.00 0.00 0.00 0.00 0.00 0.00 0.00 0.00

GFSNW_prec_precacc6_330.txt.gz
Total_Precipitation_Accumulation
0.01 0.00 0.00 0.01 0.02 0.02 0.00 0.00 0.00 0.00 0.00 0.00 0.00 0.03 0.02 0.01 0.00 0.00 0.01 0.02 0.03 0.02 0.00 0.00 0.00 0.00 0.01 0.00 0.00 0.00 0.01 0.05 0.05 0.11 0.16 0.13 0.08 0.07 0.07 0.10 0.06 0.07 0.05 0.03
0.00 0.00 0.01 0.01 0.02 0.05 0.01 0.00 0.00 0.00 0.00 0.00 0.01 0.00 0.00 0.01 0.00 0.00 0.00 0.03 0.03 0.01 0.00 0.01 0.00 0.00 0.00 0.00 0.00 0.00 0.00 0.02 0.01 0.02 0.07 0.06 0.09 0.12 0.12 0.07 0.06 0.07 0.06 0.06
0.00 0.01 0.01 0.01 0.02 0.07 0.01 0.01 0.01 0.00 0.00 0.00 0.00 0.01 0.00 0.00 0.00 0.00 0.01 0.02 0.01 0.01 0.02 0.01 0.01 0.00 0.00 0.00 0.00 0.00 0.00 0.00 0.01 0.01 0.04 0.03 0.02 0.05 0.08 0.04 0.01 0.02 0.03 0.03
0.01 0.01 0.01 0.01 0.03 0.05 0.01 0.03 0.02 0.04 0.02 0.01 0.00 0.02 0.04 0.00 0.03 0.02 0.00 0.00 0.01 0.05 0.07 0.02 0.01 0.00 0.00 0.00 0.00 0.00 0.00 0.00 0.00 0.00 0.00 0.00 0.00 0.00 0.00 0.01 0.00 0.00 0.02 0.03
0.01 0.01 0.02 0.02 0.03 0.02 0.00 0.03 0.09 0.14 0.08 0.01 0.00 0.03 0.09 0.01 0.01 0.01 0.00 0.01 0.01 0.05 0.14 0.12 0.09 0.06 0.02 0.00 0.00 0.00 0.00 0.00 0.00 0.00 0.00 0.00 0.00 0.00 0.00 0.00 0.00 0.00 0.00 0.01
0.01 0.02 0.02 0.01 0.04 0.02 0.01 0.01 0.03 0.11 0.04 0.00 0.02 0.10 0.14 0.01 0.01 0.00 0.03 0.03 0.04 0.09 0.14 0.12 0.06 0.02 0.01 0.00 0.00 0.00 0.01 0.00 0.00 0.00 0.00 0.00 0.00 0.00 0.00 0.00 0.00 0.00 0.00 0.00
0.01 0.01 0.01 0.01 0.03 0.03 0.01 0.01 0.02 0.04 0.01 0.00 0.03 0.08 0.03 0.00 0.01 0.04 0.00 0.02 0.09 0.09 0.02 0.00 0.00 0.00 0.00 0.00 0.00 0.01 0.02 0.05 0.03 0.00 0.00 0.01 0.01 0.00 0.00 0.00 0.00 0.00 0.00 0.00
0.01 0.01 0.01 0.01 0.01 0.03 0.00 0.00 0.02 0.03 0.01 0.02 0.02 0.01 0.00 0.00 0.00 0.00 0.00 0.00 0.01 0.00 0.00 0.00 0.00 0.00 0.00 0.00 0.00 0.01 0.05 0.11 0.09 0.02 0.01 0.00 0.05 0.01 0.00 0.00 0.00 0.00 0.00 0.00
0.01 0.00 0.00 0.00 0.01 0.01 0.00 0.00 0.02 0.03 0.06 0.10 0.04 0.00 0.00 0.02 0.01 0.00 0.00 0.00 0.00 0.00 0.00 0.00 0.00 0.00 0.01 0.01 0.01 0.02 0.05 0.08 0.07 0.01 0.00 0.02 0.07 0.02 0.00 0.00 0.00 0.00 0.00 0.00
0.00 0.00 0.00 0.00 0.01 0.01 0.00 0.00 0.00 0.03 0.09 0.05 0.00 0.01 0.04 0.03 0.03 0.05 0.01 0.00 0.00 0.00 0.00 0.00 0.00 0.01 0.02 0.01 0.07 0.08 0.04 0.05 0.07 0.03 0.02 0.03 0.06 0.01 0.00 0.00 0.00 0.00 0.00 0.01
0.00 0.00 0.00 0.00 0.00 0.00 0.00 0.00 0.00 0.00 0.01 0.00 0.00 0.00 0.02 0.01 0.01 0.03 0.01 0.00 0.00 0.00 0.00 0.00 0.00 0.00 0.00 0.00 0.02 0.04 0.04 0.05 0.03 0.01 0.00 0.01 0.03 0.01 0.00 0.01 0.01 0.00 0.00 0.00
0.00 0.00 0.00 0.00 0.00 0.00 0.00 0.00 0.00 0.00 0.00 0.00 0.00 0.00 0.00 0.00 0.01 0.02 0.01 0.02 0.02 0.03 0.05 0.00 0.00 0.00 0.00 0.00 0.00 0.00 0.00 0.01 0.03 0.04 0.03 0.03 0.01 0.01 0.01 0.00 0.00 0.00 0.00 0.00
0.00 0.00 0.00 0.00 0.00 0.00 0.00 0.00 0.00 0.00 0.00 0.00 0.00 0.00 0.00 0.00 0.00 0.00 0.03 0.02 0.03 0.06 0.10 0.01 0.00 0.00 0.00 0.00 0.00 0.00 0.00 0.01 0.02 0.00 0.03 0.03 0.01 0.00 0.00 0.00 0.00 0.00 0.00 0.00
0.00 0.00 0.00 0.00 0.00 0.00 0.00 0.00 0.00 0.00 0.00 0.00 0.00 0.00 0.00 0.00 0.00 0.00 0.00 0.01 0.01 0.03 0.02 0.01 0.00 0.00 0.01 0.01 0.02 0.03 0.03 0.03 0.01 0.01 0.01 0.00 0.00 0.00 0.00 0.00 0.00 0.00 0.00 0.00
0.00 0.00 0.00 0.00 0.00 0.00 0.00 0.00 0.00 0.00 0.00 0.00 0.00 0.00 0.00 0.00 0.00 0.00 0.00 0.00 0.00 0.01 0.01 0.01 0.01 0.04 0.05 0.02 0.01 0.03 0.02 0.02 0.01 0.01 0.01 0.00 0.00 0.00 0.00 0.00 0.00 0.00 0.00 0.00
0.01 0.00 0.00 0.00 0.00 0.00 0.00 0.00 0.00 0.00 0.00 0.00 0.00 0.00 0.00 0.00 0.00 0.00 0.00 0.00 0.00 0.01 0.02 0.02 0.03 0.03 0.03 0.01 0.02 0.02 0.01 0.00 0.00 0.00 0.00 0.00 0.00 0.00 0.00 0.00 0.00 0.00 0.00 0.00
0.00 0.00 0.00 0.00 0.00 0.00 0.00 0.00 0.00 0.00 0.00 0.00 0.00 0.00 0.00 0.00 0.00 0.00 0.00 0.00 0.00 0.00 0.00 0.00 0.00 0.00 0.00 0.01 0.01 0.00 0.00 0.00 0.00 0.00 0.00 0.00 0.00 0.00 0.00 0.00 0.00 0.00 0.00 0.00
0.00 0.00 0.01 0.00 0.00 0.00 0.00 0.00 0.00 0.00 0.00 0.00 0.00 0.00 0.00 0.00 0.00 0.00 0.00 0.00 0.00 0.00 0.00 0.00 0.00 0.00 0.00 0.00 0.00 0.00 0.00 0.00 0.00 0.00 0.00 0.00 0.00 0.00 0.00 0.00 0.00 0.00 0.00 0.00
0.00 0.00 0.00 0.00 0.00 0.00 0.00 0.00 0.00 0.00 0.00 0.00 0.00 0.00 0.00 0.00 0.00 0.00 0.00 0.00 0.00 0.00 0.00 0.00 0.00 0.00 0.00 0.00 0.00 0.00 0.00 0.00 0.00 0.00 0.00 0.00 0.00 0.00 0.00 0.00 0.00 0.00 0.00 0.00
0.00 0.00 0.00 0.00 0.00 0.00 0.00 0.00 0.00 0.00 0.00 0.00 0.00 0.00 0.00 0.00 0.00 0.00 0.00 0.00 0.00 0.00 0.00 0.00 0.00 0.00 0.00 0.00 0.00 0.00 0.00 0.00 0.00 0.00 0.00 0.00 0.00 0.00 0.00 0.00 0.00 0.00 0.00 0.00
0.00 0.00 0.00 0.00 0.00 0.00 0.00 0.00 0.00 0.00 0.00 0.00 0.00 0.00 0.00 0.00 0.00 0.00 0.00 0.00 0.00 0.00 0.00 0.00 0.00 0.00 0.00 0.00 0.00 0.00 0.00 0.00 0.00 0.00 0.00 0.00 0.00 0.00 0.00 0.00 0.00 0.00 0.00 0.00
0.00 0.00 0.00 0.00 0.00 0.00 0.00 0.00 0.00 0.00 0.00 0.00 0.00 0.00 0.01 0.01 0.01 0.00 0.00 0.00 0.00 0.00 0.00 0.00 0.00 0.00 0.00 0.00 0.00 0.00 0.00 0.00 0.00 0.00 0.00 0.00 0.00 0.00 0.00 0.00 0.00 0.00 0.00 0.00
0.00 0.00 0.00 0.00 0.00 0.00 0.00 0.00 0.00 0.00 0.00 0.00 0.00 0.00 0.01 0.00 0.00 0.00 0.00 0.00 0.00 0.00 0.00 0.00 0.00 0.00 0.00 0.00 0.00 0.00 0.00 0.00 0.00 0.00 0.00 0.00 0.00 0.00 0.00 0.00 0.00 0.00 0.00 0.00
0.00 0.00 0.00 0.00 0.00 0.00 0.00 0.00 0.00 0.00 0.00 0.00 0.00 0.00 0.00 0.00 0.00 0.00 0.00 0.00 0.00 0.00 0.00 0.00 0.00 0.00 0.00 0.00 0.00 0.00 0.00 0.00 0.00 0.00 0.00 0.00 0.00 0.00 0.00 0.00 0.00 0.00 0.00 0.00
0.00 0.00 0.00 0.00 0.00 0.00 0.00 0.00 0.00 0.00 0.00 0.00 0.00 0.00 0.00 0.00 0.00 0.00 0.00 0.00 0.00 0.00 0.00 0.00 0.00 0.00 0.00 0.00 0.00 0.00 0.00 0.00 0.00 0.00 0.00 0.00 0.00 0.00 0.00 0.00 0.00 0.00 0.00 0.00
0.00 0.00 0.00 0.00 0.00 0.00 0.00 0.00 0.00 0.00 0.00 0.00 0.00 0.00 0.00 0.00 0.00 0.00 0.00 0.00 0.00 0.00 0.00 0.00 0.00 0.00 0.00 0.00 0.00 0.00 0.00 0.00 0.00 0.00 0.00 0.00 0.00 0.00 0.00 0.00 0.00 0.00 0.00 0.00
0.00 0.00 0.00 0.00 0.00 0.00 0.00 0.00 0.00 0.00 0.00 0.00 0.00 0.00 0.00 0.00 0.00 0.00 0.00 0.00 0.00 0.00 0.00 0.00 0.00 0.00 0.00 0.00 0.00 0.00 0.00 0.00 0.00 0.00 0.00 0.00 0.00 0.00 0.00 0.00 0.00 0.00 0.00 0.00